Location: Caicarita
(10.0502°N, 67.6875°W)
Time: 12:10:45
(UTC+00:00)

CZ-4 R/B - Pass Details

Date: 05 August 2024
Orbit: 512 x 565 km, 97.6° (Epoch: 18 September)

Event Time Altitude Azimuth Distance (km) Brightness Sun altitude
Exits shadow 23:46:51 21° 98° (E) 1,239 2.5 -13.6°
Maximum altitude 23:47:45 23° 77° (ENE) 1,171 2.5 -13.8°
Drops below altitude 10° 23:50:51 10° 24° (NNE) 1,791 3.9 -14.5°
Sets 23:53:15 0° 9° (N) 2,670 5.0 -15.0°
